Content
SEND FEEDBACK

Daily
Averages
Monthly
Summary
United States of America

PORT EDWARDS, WISCONSIN


Home > North America > United States > Wisconsin
Elevation: 1014 feet     Latitude: 44 22N     Longitude: 089 48W

WEATHER
 
SELECT A DAY
Number of Records: 195,492;   Date Range: 7/1/96 - 7/22/14
 
SHARE

PRINT THIS DATA

[ ← Previous Day ]
WEATHER ALMANAC - JANUARY 31, 2013
[ Next Day → ]
[ °C ]   °F
Weather ElementAverageHighLow
Temperature7 °F10.9 °F (1:54 am)-2.9 °F (11:54 pm)
Dewpoint-1.3 °F3.9 °F (1:54 am)-9 °F (11:54 pm)
Humidity68.9 %76 % (7:54 am)61 % (11:54 am)
Barometer29.86 in30.19 in (11:54 pm)29.68 in (1:54 am)
Wind Speed13.3 mph17.3 mph (9:47 am)
Wind Gust23 mph (8:54 am)
Weather ElementAverage
Visibility5.8 mi
Wind DirectionWNW (297.8 °)

Weather ElementTotal
Precipitation---
Heating Degree Days61 (Base 65)
Averaged from 36 records on January 31, 2013
WEATHER CONDITIONS BREAKOUT
WIND DIRECTION BREAKOUT
WEATHER BY HOUR - JANUARY 31, 2013
[ °C ]   °F
Local TimeTemperatureDewpointHumidityBarometerVisibilityWind DirectionWind SpeedGust SpeedPrecipitationEventsConditions
1:54 AM10.9 °F3.9 °F73 %29.68 in5.0 miWNW (290°)10.4 mph0.00 inSnowLight Snow
2:54 AM10.0 °F1.9 °F70 %29.70 in9.0 miWNW (300°)12.7 mph17.3 mph0.00 inOvercast
3:54 AM10.0 °F1.0 °F67 %29.71 in10.0 miWest (280°)11.5 mph0.00 inOvercast
4:54 AM9.0 °F0.0 °F67 %29.72 in10.0 miWNW (290°)10.4 mphOvercast
5:54 AM9.0 °F1.0 °F70 %29.74 in10.0 miWNW (300°)11.5 mphOvercast
6:54 AM7.0 °F0.0 °F73 %29.77 in10.0 miWNW (290°)10.4 mphMostly Cloudy
7:54 AM6.1 °F0.0 °F76 %29.81 in6.0 miWest (280°)11.5 mph0.00 inSnowLight Snow
8:35 AM6.8 °F-0.4 °F72 %29.76 in9.0 miWNW (290°)10.4 mph0.00 inMostly Cloudy
8:54 AM7.0 °F-0.9 °F70 %29.83 in10.0 miWNW (300°)15.0 mph23.0 mph0.00 inMostly Cloudy
9:47 AM6.8 °F-0.4 °F72 %29.78 in2.5 miWNW (290°)17.3 mph20.7 mph0.00 inSnowLight Snow
9:54 AM7.0 °F0.0 °F73 %29.85 in2.5 miWNW (290°)11.5 mph21.9 mph0.00 inSnowLight Snow
10:17 AM6.8 °F-0.4 °F72 %29.80 in5.0 miNW (310°)12.7 mph23.0 mph0.00 inSnowLight Snow
10:47 AM6.8 °F-2.2 °F67 %29.81 in10.0 miWNW (300°)12.7 mph21.9 mph0.00 inScattered Clouds
10:54 AM7.0 °F-2.0 °F67 %29.88 in10.0 miNW (310°)13.8 mph0.00 inScattered Clouds
11:10 AM6.8 °F-2.2 °F67 %29.81 in10.0 miWNW (300°)13.8 mph19.6 mphMostly Cloudy
11:47 AM6.8 °F-2.2 °F67 %29.82 in3.0 miWNW (290°)13.8 mphHaze
11:54 AM8.1 °F-2.9 °F61 %29.89 in3.0 miNW (320°)13.8 mphSnowBlowing Snow
12:01 PM6.8 °F-2.2 °F67 %29.82 in7.0 miNW (310°)16.1 mph0.00 inSnowLight Snow
12:54 PM7.0 °F-2.0 °F67 %29.91 in6.0 miNW (310°)16.1 mph0.00 inSnowLight Snow
1:27 PM8.6 °F-0.4 °F67 %29.84 in2.5 miNW (310°)12.7 mph20.7 mph0.00 inSnowLight Snow
1:54 PM8.1 °F-2.0 °F64 %29.92 in3.0 miWNW (300°)15.0 mph0.00 inHaze
2:03 PM8.6 °F-0.4 °F67 %29.85 in3.0 miWNW (300°)13.8 mph0.00 inSnowLight Snow
2:07 PM8.6 °F-0.4 °F67 %29.85 in1.8 miNW (310°)15.0 mph0.00 inSnowLight Snow
2:18 PM8.6 °F-0.4 °F67 %29.86 in3.0 miNW (320°)13.8 mph0.00 inSnowLight Snow
2:27 PM8.6 °F-0.4 °F67 %29.86 in3.0 miNW (310°)17.3 mph0.00 inSnowLight Snow
2:35 PM8.6 °F-0.4 °F67 %29.86 in1.8 miNW (310°)16.1 mph0.00 inSnowLight Snow
2:46 PM8.6 °F-2.2 °F62 %29.87 in3.0 miNW (310°)16.1 mph21.9 mph0.00 inSnowLight Snow
2:54 PM8.1 °F-0.9 °F67 %29.94 in5.0 miNW (310°)17.3 mph0.00 inHaze
3:10 PM6.8 °F-0.4 °F72 %29.88 in2.5 miWNW (300°)12.7 mph0.00 inSnowLight Snow
3:20 PM6.8 °F-0.4 °F72 %29.89 in1.8 miWNW (290°)13.8 mph20.7 mph0.00 inSnowLight Snow
3:22 PM6.8 °F-0.4 °F72 %29.89 in2.0 miWNW (290°)13.8 mph20.7 mph0.00 inSnowLight Snow
3:54 PM7.0 °F-0.9 °F70 %29.98 in3.0 miWNW (300°)13.8 mph21.9 mph0.00 inSnowLight Snow
4:54 PM5.0 °F-2.9 °F70 %30.01 in7.0 miWNW (290°)12.7 mph0.00 inMostly Cloudy
8:54 PM1.0 °F-7.1 °F69 %30.13 in10.0 miWest (280°)9.2 mph18.4 mphScattered Clouds
9:54 PM0.0 °F-8.0 °F69 %30.15 in10.0 miWest (280°)10.4 mphClear
11:54 PM-2.9 °F-9.0 °F75 %30.19 in10.0 miWest (260°)8.1 mphClear
Hourly data recorded from KISW, located miles away from Port Edwards, Wisconsin







STORIES FROM OUR PARTNERS